Location: Little Cypress
(30.1590°N, 93.7750°W)
Time: 12:20:42
(UTC-05:00)

Daily predictions for brighter satellites

Satellite Brightness Start Highest point End
(mag) Time Altitude Azimuth Time Altitude Azimuth Time Altitude Azimuth
COSMOS 2406 4.0 20:38:16 10° N 20:43:26 34° ENE 20:48:32 10° SE
Resurs 1-3 4.2 20:40:38 10° S 20:44:57 61° WSW 20:49:17 10° NNW
Cosmos 2221 Rocket 4.3 20:40:55 10° NNW 20:45:16 57° W 20:49:35 10° S
Cosmos 2184 Rocket 4.1 20:39:57 10° SSE 20:45:52 53° E 20:51:51 10° NNE
Cosmos 2278 Rocket 3.2 20:41:43 10° SSE 20:46:09 24° ESE 20:50:36 10° NE
ALOS 2.3 20:43:08 10° SSE 20:47:45 65° ENE 20:52:23 10° N
Cosmos 1844 Rocket 2.7 20:43:29 10° S 20:49:02 61° ESE 20:54:36 10° NNE
Cosmos 1825 4.2 20:47:59 10° ESE 20:49:02 11° E 20:50:04 10° ENE
Cosmos 1844 4.0 20:45:28 10° S 20:50:52 45° ESE 20:56:21 10° NE
Intelsat 3F5 C 4.0 20:53:46 10° WSW 20:57:08 76° S 20:59:54 12° E
H-2A R/B 3.9 20:55:26 11° ESE 20:57:39 16° ENE 21:00:11 10° NNE
FENGYUN 3A 3.6 20:52:51 10° SSE 20:58:15 80° ENE 21:03:39 10° N
CENTAUR R/B 3.2 20:57:01 10° NNW 21:05:05 75° ENE 21:12:56 12° SE
Meteor 2-10 Rocket 3.7 20:59:57 10° N 21:05:42 67° E 21:11:15 10° SSE
Okean 1-7 4.3 21:05:30 10° NNW 21:09:35 42° W 21:13:41 10° SSW
CZ-2D R/B 3.7 21:06:55 10° S 21:10:40 60° W 21:14:26 10° NNW
Myojo/LAPS 4.1 21:07:42 10° SW 21:11:09 23° S 21:11:57 20° SE
ISS -2.5 21:08:41 10° WSW 21:11:52 53° NW 21:15:03 10° NE
Meteor 1-10 Rocket 4.4 21:07:38 10° N 21:13:19 56° E 21:18:23 12° SSE
USA 186 2.1 21:10:42 10° S 21:13:40 62° W 21:16:51 10° NNW
Centaur D-1A AC-32 3.0 21:07:53 10° WSW 21:14:55 39° S 21:16:51 21° ESE
Cosmos 2056 Rocket 4.4 21:09:57 10° SSW 21:14:59 53° WNW 21:20:01 10° N
Cosmos 1862 4.1 21:14:21 18° SE 21:16:43 32° E 21:20:22 10° NNE
Cosmos 2074 Rocket 4.2 21:10:35 10° S 21:16:52 77° W 21:23:09 10° N
SPOT 5 4.4 21:15:48 17° ESE 21:18:09 23° ENE 21:22:18 10° NNE
Cosmos 1238 Rocket 4.5 21:16:27 10° NE 21:18:32 15° E 21:18:32 15° E
Orbus 7S 4.2 21:12:35 10° W 21:18:58 52° SSW 21:20:26 26° SE
Okean 2 Rocket 4.2 21:25:23 23° ESE 21:25:58 24° E 21:29:30 10° NE
OAO 3 Rocket 3.2 21:21:33 10° SW 21:26:27 61° SSE 21:30:20 16° ENE
Cosmos 1610 Rocket 4.4 21:20:23 10° S 21:26:31 85° E 21:32:44 10° N
ATLAS 2A CENTAUR R/B 1.2 21:24:48 10° WSW 21:28:06 31° S 21:28:06 31° S
COS B Rocket 3.9 21:25:23 10° NNE 21:28:50 30° E 21:29:13 30° E
Cosmos 1674 Rocket 3.5 21:25:48 10° N 21:30:15 70° E 21:33:03 22° SSE
SL-27 R/B 2.4 21:30:55 10° NNW 21:34:33 83° ENE 21:35:57 35° SSE
Sich 1 Rocket 3.7 21:31:21 10° S 21:35:55 82° W 21:40:30 10° N
Cosmos 1606 3.1 21:33:10 10° N 21:36:57 44° E 21:37:45 38° ESE
Cosmos 1782 Rocket 3.9 21:38:01 33° SE 21:39:27 44° E 21:43:42 10° NNE
PSLV R/B 3.5 21:36:24 10° NW 21:39:48 60° NNE 21:40:36 44° E
Nadezhda 3 Rocket 4.2 21:33:39 10° N 21:39:51 52° E 21:43:14 27° SE
Meteor 1-27 Rocket 3.8 21:35:35 10° N 21:41:01 56° E 21:43:36 30° SE
Meteosat 1 Rocket2 4.1 21:36:14 10° W 21:41:52 77° S 21:47:26 23° E
CZ-4 DEB 4.0 21:43:16 19° SSW 21:45:05 38° W 21:48:04 10° NNW
Cosmos 1782 3.1 21:44:21 10° NNW 21:48:21 65° W 21:50:33 25° S
Envisat 2.9 21:46:06 32° SSE 21:48:27 69° ENE 21:53:30 10° N
GPS 2-05 Rocket1 4.2 21:45:11 10° W 21:48:41 38° N 21:50:40 21° NE
ERBS 3.2 21:47:09 10° NW 21:50:26 41° WSW 21:51:07 36° SSW
APEX 3.4 21:51:35 50° E 21:51:35 50° E 21:55:34 10° NNE
COSMOS 2487 3.8 21:49:42 10° N 21:52:14 27° NE 21:52:14 27° NE
SEDSat Delta rocket 2.8 21:49:40 10° WSW 21:53:56 59° SSE 21:54:14 57° SE
Cosmos 1939 Rocket 2.8 21:53:45 44° S 21:54:53 78° WSW 21:58:48 10° NNW
Cosmos 2341 Rocket 3.9 21:52:34 14° S 21:58:09 84° E 22:04:26 10° N
Cosmos 1420 Rocket 3.9 21:55:11 16° S 21:59:29 78° ESE 22:04:43 10° NNE
Cosmos 1975 Rocket 3.5 21:56:30 10° N 22:00:24 42° ENE 22:00:24 42° ENE
Atlas Centaur 2 1.0 21:57:30 10° W 22:00:49 69° SW 22:00:49 69° SW
ARGOS 4.0 22:05:13 32° ENE 22:05:33 32° ENE 22:10:15 10° N
ERS-1 Rocket 3.7 22:02:39 20° SSW 22:05:52 48° W 22:10:45 10° NNW
SL-8 Rocket 4.0 22:10:09 44° SSE 22:12:01 61° E 22:18:10 10° NNE
Cosmos 1378 Rocket 3.5 22:08:15 10° N 22:12:34 77° W 22:13:08 64° SSW
H-2A R/B 3.8 22:13:15 19° ENE 22:13:15 19° ENE 22:16:29 10° NNE
Cosmos 407 Rocket 4.0 22:08:04 10° NNW 22:13:15 57° WSW 22:15:21 34° SSW
ATLAS 5 CENTAUR R/B 3.4 22:07:30 10° NW 22:13:18 41° WSW 22:16:44 23° SSW
UNK 4.3 22:11:07 10° NNE 22:17:16 90° W 22:20:24 30° SSW
YAOGAN 6 3.7 22:18:38 36° N 22:18:38 36° N 22:20:51 10° N
Timation 2 Rocket 4.3 22:13:05 10° N 22:18:45 43° ENE 22:19:21 42° E
Cosmos 1140 Rocket 3.6 22:14:04 10° N 22:19:06 53° ENE 22:19:08 53° ENE
Cosmos 1408 4.1 22:18:17 27° WSW 22:19:30 34° W 22:22:51 10° NNW
Cosmos 1825 3.9 22:22:41 22° WSW 22:24:16 30° W 22:27:40 10° NNW
Cosmos 1242 Rocket 4.0 22:22:34 10° N 22:24:43 33° N 22:24:43 33° N
Mugunghwa Rocket 4.5 22:18:59 10° WSW 22:26:55 51° SSE 22:27:39 50° SSE
SPOT 1/Viking Rocket 3.6 22:28:03 63° ENE 22:28:03 63° ENE 22:33:09 10° N
USA 234 3.2 22:22:31 10° NE 22:28:57 59° SE 22:30:49 44° S
Cosmos 2278 Rocket 3.7 22:24:51 10° SW 22:29:58 34° WNW 22:35:06 10° N
CZ-4B R/B 3.3 22:26:05 10° NNE 22:30:59 85° WNW 22:31:08 83° WSW
H-2A R/B 3.4 22:32:34 30° WSW 22:33:22 33° W 22:37:14 10° NW
Cosmos 1833 Rocket 4.0 22:29:36 10° N 22:33:42 25° NE 22:33:42 25° NE
MetOp-A 4.2 22:34:02 61° SSW 22:34:47 70° WSW 22:40:08 10° NNW
Meteor 1-14 Rocket 4.3 22:41:16 63° SW 22:42:09 76° W 22:47:46 10° N
Cosmos 864 Rocket 4.3 22:42:35 74° E 22:42:37 74° E 22:48:45 10° N
Cosmos 489 Rocket 4.4 22:40:16 10° NNW 22:46:28 77° WSW 22:47:05 70° SSW
Terra 3.4 22:52:21 25° NNE 22:52:21 25° NNE 22:54:47 10° N
CZ-3C R/B 3.2 22:32:49 10° WSW 22:50:58 38° SSW 22:50:58 38° SSW
Cosmos 2366 rocket 3.9 22:51:57 76° SSW 22:52:27 85° W 22:58:48 10° N
Cosmos 2082 Rocket 2.8 22:50:16 10° N 22:54:52 47° NE 22:54:52 47° NE
SPOT 5 4.3 22:55:02 32° WSW 22:55:55 34° W 23:00:43 10° NNW
Cosmos 1850 Rocket 4.3 22:51:12 10° NNW 22:55:44 65° NNW 22:55:44 65° NNW
USA 229 DEB 4.0 23:10:10 10° NNW 23:16:52 59° NE 23:16:52 59° NE
USA 229 4.0 23:10:16 10° NNW 23:16:58 58° NE 23:16:58 58° NE
Cosmos 2369 Rocket 4.4 23:42:13 16° NE 23:42:13 16° NE 23:43:18 10° NNE
H-2A R/B 3.7 23:53:53 30° NW 23:53:53 30° NW 23:56:55 10° NNW
